x

Block Island, Block Island State Airport Weather Station

11:15am - Fri 21st Nov 2014 All times are EST. -5 hours from GMT.

  • Wind
    16mph, 28mph gusts
  • Air Temp 34°f
  • Sea Pressure 1021mb
  • Block Island, Block Island State Airport
  • Block Island, Block Island State Airport

More Historic Weather Station data

Upgrade to MSW Pro to gain access to the past 30 days of data for over 8000 Wavebouys and Weather Stations around the globe.

Join Pro

Comparision Forecast

View Surf forecast
   
Fri 11/21 11:15am 16 28 mph 1021mb 34f
10:55am 14 27 mph 1021.3mb 34f
10:35am 15 25 mph 1021.3mb 34f
10:15am 14 27 mph 1021.3mb 34f
9:55am 16 28 mph 1021mb 34f
9:35am 15 28 mph 1020.7mb 32f
9:15am 15 28 mph 1020.7mb 32f
8:55am 18 28 mph 1020.7mb 30f
8:35am 18 27 mph 1020.7mb 30f
8:15am 13 25 mph 1020.3mb 30f
7:55am 16 27 mph 1020mb 30f
7:35am 15 24 mph 1019.3mb 30f
7:15am 16 24 mph 1019mb 30f
6:55am 16 28 mph 1018.6mb 30f
6:35am 16 23 mph 1018.3mb 30f
6:15am 15 25 mph 1018mb 30f
5:55am 13 20 mph 1017.3mb 30f
5:35am 13 21 mph 1016.9mb 30f
5:15am 14 22 mph 1016.6mb 30f
4:55am 14 24 mph 1016.3mb 30f
4:35am 13 20 mph 1016.3mb 30f
4:15am 13 21 mph 1015.9mb 32f
3:55am 9 17 mph 1015.6mb 32f
3:35am 12 17 mph 1015.2mb 34f
3:15am 10 20 mph 1014.9mb 34f
2:55am 13 20 mph 1014.9mb 34f
2:35am 13
mph
1014.6mb 34f
2:15am 10 20 mph 1014.2mb 34f
1:55am 15 21 mph 1014.2mb 34f
1:35am 10 18 mph 1014.2mb 34f
1:15am 8
mph
1014.2mb 34f
12:55am 8
mph
1013.9mb 36f
12:35am 8
mph
1013.9mb 36f
12:15am 9 16 mph 1013.9mb 36f
Thu 11/20 11:55pm 13
mph
1013.5mb 36f
11:35pm 13 21 mph 1013.5mb 36f
11:15pm 12 21 mph 1013.2mb 37f
10:55pm 13 25 mph 1012.9mb 37f
10:35pm 12 21 mph 1012.9mb 39f
10:15pm 12 24 mph 1012.5mb 39f
9:55pm 16 27 mph 1012.5mb 41f
9:35pm 16 27 mph 1011.9mb 41f
9:15pm 14 25 mph 1012.2mb 43f
8:55pm 18 29 mph 1011.9mb 43f
8:35pm 24 35 mph 1011.9mb 45f
8:15pm 23 32 mph 1011.9mb 45f
7:55pm 14 35 mph 1011.9mb 45f
7:35pm 17 31 mph 1011.9mb 45f
7:15pm 22 31 mph 1011.5mb 45f
6:55pm 22 32 mph 1011.2mb 45f
6:35pm 23 35 mph 1011.2mb 45f
6:15pm 17 33 mph 1010.8mb 45f
5:55pm 23 30 mph 1010.8mb 45f
5:35pm 18 32 mph 1010.5mb 45f
5:15pm 23 31 mph 1010.2mb 45f
4:55pm 21 27 mph 1009.8mb 45f
4:35pm 18 25 mph 1009.8mb 45f
4:15pm 18 25 mph 1009.5mb 46f
3:55pm 17 23 mph 1009.5mb 46f
3:35pm 17 27 mph 1009.5mb 46f
3:15pm 18 25 mph 1009.1mb 46f
2:55pm 15 25 mph 1009.1mb 48f
2:35pm 18 24 mph 1009.5mb 48f
2:15pm 16 25 mph 1009.5mb 48f
1:55pm 17 23 mph 1009.8mb 48f
1:35pm 16 23 mph 1009.8mb 48f
1:15pm 17 25 mph 1010.2mb 50f
12:55pm 14 22 mph 1010.5mb 50f
12:35pm 17 25 mph 1010.8mb 48f
12:15pm 15 24 mph 1011.2mb 48f
11:55am 16 23 mph 1011.5mb 48f
11:35am 15 24 mph 1011.9mb 48f
11:15am 17 25 mph 1011.9mb 46f
10:55am 17 25 mph 1012.5mb 46f
9:55am 14 21 mph 1013.2mb 45f
9:35am 15 22 mph 1013.2mb 45f
9:15am 16 25 mph 1013.5mb 43f
8:55am 20 25 mph 1013.5mb 43f
8:35am 15 24 mph 1013.5mb 43f
8:15am 15 25 mph 1013.9mb 43f
7:55am 17 27 mph 1013.9mb 43f
7:35am 17 22 mph 1013.9mb 43f
7:15am 16 24 mph 1014.2mb 43f
6:55am 13 21 mph 1013.9mb 43f
6:35am 14 23 mph 1013.9mb 43f
6:15am 16 23 mph 1013.9mb 43f
5:55am 16 22 mph 1014.2mb 45f
5:35am 16 21 mph 1014.2mb 45f
5:15am 18 27 mph 1014.2mb 45f
4:55am 20 27 mph 1014.6mb 45f
4:35am 16 22 mph 1014.9mb 43f
4:15am 10 16 mph 1015.2mb 43f
3:55am 10
mph
1015.6mb 41f
3:35am 13
mph
1015.9mb 41f
3:15am 13 21 mph 1016.3mb 39f
2:55am 14 21 mph 1016.6mb 39f
2:35am 20 25 mph 1016.6mb 39f
2:15am 14 24 mph 1016.9mb 39f
1:55am 18 25 mph 1017.3mb 39f
1:35am 14 18 mph 1017.3mb 37f
1:15am 17 23 mph 1017.6mb 37f
12:55am 17 23 mph 1018mb 37f
12:35am 17 24 mph 1018.3mb 37f
12:15am 21 27 mph 1018.6mb 37f
Wed 11/19 11:55pm 15 23 mph 1018.3mb 37f
11:35pm 14 21 mph 1019mb 37f
11:15pm 15 25 mph 1019mb 37f
10:55pm 13 27 mph 1019.3mb 39f
10:35pm 21 32 mph 1019mb 39f
10:15pm 20 31 mph 1019mb 39f
9:55pm 17 25 mph 1019mb 39f
9:35pm 23 30 mph 1019mb 39f
9:15pm 20 33 mph 1019.3mb 39f
8:55pm 22 33 mph 1019.3mb 37f
8:35pm 20 25 mph 1019.3mb 37f
8:15pm 20 27 mph 1019.3mb 37f
7:55pm 16 24 mph 1019.6mb 37f
7:35pm 16 24 mph 1020mb 36f
7:15pm 16
mph
1020mb 36f
6:55pm 20
mph
1020.3mb 36f
6:35pm 14 18 mph 1020.3mb 34f
6:15pm 16 24 mph 1020.7mb 34f
5:55pm 16 21 mph 1021mb 34f
5:35pm 15 24 mph 1021mb 34f
5:15pm 14 18 mph 1021.3mb 34f
4:55pm 17
mph
1021mb 34f
4:35pm 15 21 mph 1021mb 34f
4:15pm 14 21 mph 1021mb 34f
3:55pm 14 21 mph 1021.3mb 34f
3:35pm 13
mph
1021mb 36f
3:15pm 12 17 mph 1021mb 36f
2:55pm 15 20 mph 1021mb 36f
2:35pm 13 18 mph 1021mb 36f
2:15pm 13
mph
1021.3mb 36f
1:55pm 14 20 mph 1021.3mb 36f
1:35pm 10 21 mph 1021.3mb 36f
1:15pm 13 21 mph 1021.3mb 36f
12:55pm 10 17 mph 1021.3mb 36f
12:35pm 10 18 mph 1021.3mb 36f
12:15pm 12 21 mph 1021.7mb 36f
11:55am 10
mph
1022mb 36f
11:35am 10
mph
1022mb 36f
11:15am 13 20 mph 1022.4mb 34f
10:55am 13 20 mph 1022.4mb 34f
10:35am 13 17 mph 1022.4mb 34f
10:15am 14 20 mph 1022.7mb 34f
9:55am 14 23 mph 1022.4mb 34f
9:35am 13 21 mph 1022.4mb 32f
9:15am 13 21 mph 1022.4mb 32f
8:55am 9 23 mph 1022mb 30f
8:35am 13 21 mph 1021.7mb 30f
8:15am 14 23 mph 1021.7mb 30f
7:55am 14 27 mph 1021.3mb 30f
7:35am 14 23 mph 1021.3mb 28f
7:15am 13 21 mph 1021mb 28f
6:55am 16 23 mph 1020.3mb 28f
6:35am 15 27 mph 1019.6mb 28f
6:15am 18 27 mph 1019.3mb 28f
5:55am 18 27 mph 1019mb 28f
5:35am 18 27 mph 1019mb 28f
5:15am 17 27 mph 1018.6mb 27f
4:55am 18 27 mph 1018.6mb 27f
4:35am 18 29 mph 1018.3mb 27f
4:15am 18 25 mph 1018.3mb 27f
3:55am 20 30 mph 1018mb 28f
3:35am 20 29 mph 1017.6mb 27f
3:15am 18 32 mph 1017.6mb 27f
2:55am 20 32 mph 1017.3mb 27f
2:35am 16 31 mph 1016.9mb 27f
2:15am 22 31 mph 1016.9mb 28f
1:55am 21 35 mph 1016.6mb 28f
1:35am 23 33 mph 1016.3mb 28f
1:15am 23 32 mph 1015.9mb 28f
12:55am 21 35 mph 1015.9mb 28f
12:35am 18 32 mph 1015.9mb 30f
12:15am 21 31 mph 1015.6mb 30f
Tue 11/18 11:55pm 18 32 mph 1015.6mb 30f
11:35pm 21 36 mph 1015.6mb 30f
11:15pm 15 29 mph 1015.2mb 30f
10:55pm 22 29 mph 1014.9mb 30f
10:35pm 20 31 mph 1014.6mb 30f
10:15pm 20 28 mph 1014.6mb 30f
9:55pm 15 27 mph 1014.2mb 30f
9:35pm 18 27 mph 1014.6mb 30f
9:15pm 14 24 mph 1014.2mb 30f
8:55pm 15 25 mph 1013.9mb 30f
8:35pm 16 21 mph 1013.5mb 30f
8:15pm 14 24 mph 1013.5mb 30f
7:55pm 14 27 mph 1013.2mb 30f
7:35pm 15 25 mph 1012.9mb 30f
7:15pm 16 28 mph 1012.5mb 32f
6:55pm 17 27 mph 1012.2mb 32f
6:35pm 16 27 mph 1011.9mb 32f
6:15pm 12 18 mph 1011.5mb 32f
5:55pm 14 25 mph 1011.2mb 32f
5:35pm 13 23 mph 1010.8mb 32f
5:15pm 14 31 mph 1010.5mb 34f
4:55pm 16 25 mph 1009.8mb 34f
4:35pm 20 25 mph 1009.8mb 34f
4:15pm 15 25 mph 1009.5mb 34f
3:55pm 16 28 mph 1009.1mb 34f
3:35pm 18 28 mph 1008.8mb 34f
3:15pm 18 30 mph 1008.5mb 36f
2:55pm 20 32 mph 1008.1mb 36f
2:35pm 17 30 mph 1007.8mb 36f
2:15pm 22 35 mph 1007.8mb 36f
1:55pm 17 31 mph 1007.1mb 36f
1:35pm 20 35 mph 1007.1mb 36f
1:15pm 18 32 mph 1007.1mb 36f
12:55pm 21 36 mph 1006.8mb 36f
12:35pm 27 33 mph 1006.8mb 37f
12:15pm 24 32 mph 1006.8mb 37f
11:55am 22 37 mph 1006.8mb 37f
11:35am 22 35 mph 1006.8mb 37f
11:15am 25 36 mph 1006.8mb 39f
10:55am 21 33 mph 1006.8mb 39f
10:35am 24 39 mph 1006.4mb 39f
10:15am 22 33 mph 1006.4mb 39f
9:55am 20 33 mph 1006.1mb 39f
9:35am 22 31 mph 1005.8mb 39f
9:15am 22 32 mph 1005.4mb 41f
8:55am 23 33 mph 1005.1mb 41f
8:35am 23 33 mph 1004.7mb 41f
8:15am 18 31 mph 1004.7mb 41f
7:55am 22 31 mph 1004.4mb 43f
7:35am 21 29 mph 1004.1mb 43f
7:15am 20 29 mph 1003.4mb 43f
6:55am 18 28 mph 1003.1mb 43f
6:35am 21 30 mph 1002.7mb 45f
6:15am 15 27 mph 1002.4mb 45f
5:55am 18 28 mph 1002mb 45f
5:35am 16 31 mph 1002mb 45f
5:15am 17 23 mph 1001.7mb 45f
4:55am 15 28 mph 1001.7mb 46f
4:35am 14 18 mph 1001.4mb 46f
4:15am 10 21 mph 1001mb 46f
3:55am 12 18 mph 1000.7mb 46f
3:35am 8 18 mph 1000.3mb 46f
3:15am 12 18 mph 1000.3mb 46f
2:55am 13 24 mph 1000mb 48f
2:35am 10 18 mph 999.7mb 48f
2:15am 13 20 mph 999.7mb 48f
1:55am 13 23 mph 999.3mb 48f
1:35am 15 21 mph 999.7mb 48f
1:15am 12 21 mph 999.3mb 48f
12:55am 15 23 mph 999mb 50f
12:35am 15 24 mph 998.6mb 50f
12:15am 18 27 mph 998.3mb 52f
Mon 11/17 11:55pm 16 23 mph 998.3mb 52f
11:35pm 17 23 mph 998mb 52f
11:15pm 15 21 mph 998.3mb 52f
10:55pm 16 22 mph 998.3mb 52f
10:35pm 16 24 mph 997.6mb 52f
10:15pm 17 25 mph 998mb 52f
9:55pm 13 25 mph 998mb 54f
9:35pm 15 23 mph 998mb 54f
9:15pm 14 23 mph 997.6mb 57f
8:55pm 13 21 mph 997.3mb 57f
8:35pm 15 22 mph 997.6mb 57f
8:15pm 16 22 mph 998mb 59f
7:55pm 14
mph
998.3mb 59f
7:35pm 17 23 mph 998.6mb 59f
7:15pm 20 24 mph 999mb 59f
6:55pm 15
mph
999mb 57f
6:35pm 22 30 mph 999.7mb 59f
6:15pm 22 30 mph 1000mb 59f
5:55pm 29 36 mph 1000.7mb 59f
5:35pm 30 39 mph 1001mb 61f
5:15pm 24 33 mph 1000.7mb 59f
4:55pm 10
mph
1000.7mb 59f